| time (UTC) | temp F | wind direction | speed MPH | gust MPH | rain 1hr in | rain 24hr in | rain mn in | humidity % | barometer mb |
| 20260906194431 | 66 | 162 | 0.0 | 0.0 | 0.00 | 0.00 | 0.00 | 10 | 1017.0 |
| 20260906193932 | 66 | 144 | 0.0 | 0.0 | 0.00 | 0.00 | 0.00 | 10 | 1017.0 |
| 20260906193431 | 66 | 143 | 0.0 | 0.0 | 0.00 | 0.00 | 0.00 | 10 | 1017.0 |
| 20260906192931 | 66 | 164 | 0.0 | 0.0 | 0.00 | 0.00 | 0.00 | 10 | 1017.0 |
| 20260906192432 | 66 | 168 | 0.0 | 0.0 | 0.00 | 0.00 | 0.00 | 10 | 1017.0 |
| 20260906191929 | 66 | 156 | 0.0 | 0.0 | 0.00 | 0.00 | 0.00 | 10 | 1017.0 |
| 20260906191431 | 66 | 167 | 0.0 | 0.0 | 0.00 | 0.00 | 0.00 | 10 | 1017.0 |
| 20260906190928 | 66 | 162 | 0.0 | 0.0 | 0.00 | 0.00 | 0.00 | 10 | 1017.0 |
| 20260906190428 | 66 | 158 | 0.0 | 0.0 | 0.00 | 0.00 | 0.00 | 10 | 1017.0 |
| 20260906185933 | 66 | 143 | 0.0 | 0.0 | 0.00 | 0.00 | 0.00 | 10 | 1017.0 |
| 20260906184932 | 66 | 165 | 0.0 | 0.0 | 0.00 | 0.00 | 0.00 | 10 | 1017.0 |
| 20260906184431 | 66 | 159 | 0.0 | 0.0 | 0.00 | 0.00 | 0.00 | 10 | 1017.0 |
| 20260906183933 | 66 | 143 | 0.0 | 0.0 | 0.00 | 0.00 | 0.00 | 10 | 1016.0 |
| 20260906183432 | 66 | 168 | 0.0 | 0.0 | 0.00 | 0.00 | 0.00 | 10 | 1016.0 |
| 20260906182928 | 67 | 167 | 0.0 | 0.0 | 0.00 | 0.00 | 0.00 | 10 | 1016.0 |
| 20260906182433 | 67 | 161 | 0.0 | 0.0 | 0.00 | 0.00 | 0.00 | 10 | 1016.0 |
| 20260906181928 | 67 | 144 | 0.0 | 0.0 | 0.00 | 0.00 | 0.00 | 10 | 1016.0 |
| 20260906181428 | 67 | 146 | 0.0 | 0.0 | 0.00 | 0.00 | 0.00 | 10 | 1016.0 |
| 20260906180432 | 68 | 143 | 0.0 | 0.0 | 0.00 | 0.00 | 0.00 | 10 | 1016.0 |
| 20260906175933 | 68 | 168 | 0.0 | 0.0 | 0.00 | 0.00 | 0.00 | 10 | 1016.0 |
| 20260906174933 | 69 | 155 | 0.0 | 0.0 | 0.00 | 0.00 | 0.00 | 10 | 1016.0 |
| 20260906174429 | 69 | 155 | 0.0 | 0.0 | 0.00 | 0.00 | 0.00 | 10 | 1016.0 |
| 20260906173928 | 70 | 143 | 0.0 | 0.0 | 0.00 | 0.00 | 0.00 | 10 | 1016.0 |
| 20260906172929 | 71 | 149 | 0.0 | 0.0 | 0.00 | 0.00 | 0.00 | 10 | 1016.0 |
| 20260906171930 | 73 | 146 | 0.0 | 0.0 | 0.00 | 0.00 | 0.00 | 10 | 1016.0 |
| 20260906171432 | 74 | 152 | 0.0 | 0.0 | 0.00 | 0.00 | 0.00 | 10 | 1016.0 |
| 20260906170933 | 74 | 166 | 0.0 | 0.0 | 0.00 | 0.00 | 0.00 | 10 | 1016.0 |
| 20260906170432 | 75 | 148 | 0.0 | 0.0 | 0.00 | 0.00 | 0.00 | 10 | 1016.0 |
| 20260906165928 | 76 | 158 | 0.0 | 0.0 | 0.00 | 0.00 | 0.00 | 10 | 1016.0 |
| 20260906165429 | 77 | 160 | 0.0 | 0.0 | 0.00 | 0.00 | 0.00 | 10 | 1016.0 |
| 20260906164432 | 78 | 156 | 0.0 | 0.0 | 0.00 | 0.00 | 0.00 | 10 | 1016.0 |
| 20260906163432 | 77 | 161 | 0.0 | 0.0 | 0.00 | 0.00 | 0.00 | 10 | 1016.0 |
| 20260906162930 | 77 | 147 | 0.0 | 0.0 | 0.00 | 0.00 | 0.00 | 10 | 1016.0 |
| 20260906162436 | 78 | 169 | 0.0 | 0.0 | 0.00 | 0.00 | 0.00 | 10 | 1016.0 |
| 20260906161933 | 80 | 168 | 0.0 | 0.0 | 0.00 | 0.00 | 0.00 | 10 | 1016.0 |
| 20260906161432 | 81 | 169 | 0.0 | 0.0 | 0.00 | 0.00 | 0.00 | 10 | 1016.0 |
| 20260906160930 | 81 | 168 | 0.0 | 0.0 | 0.00 | 0.00 | 0.00 | 10 | 1016.0 |
| 20260906160433 | 80 | 151 | 0.0 | 0.0 | 0.00 | 0.00 | 0.00 | 10 | 1016.0 |
| 20260906155929 | 80 | 144 | 0.0 | 0.0 | 0.00 | 0.00 | 0.00 | 10 | 1016.0 |
| 20260906155432 | 80 | 167 | 0.0 | 0.0 | 0.00 | 0.00 | 0.00 | 10 | 1016.0 |
| 20260906154928 | 79 | 169 | 0.0 | 0.0 | 0.00 | 0.00 | 0.00 | 10 | 1016.0 |
| 20260906153928 | 79 | 156 | 0.0 | 0.0 | 0.00 | 0.00 | 0.00 | 10 | 1016.0 |
| 20260906153433 | 79 | 169 | 0.0 | 0.0 | 0.00 | 0.00 | 0.00 | 10 | 1016.0 |
| 20260906152931 | 78 | 167 | 0.0 | 0.0 | 0.00 | 0.00 | 0.00 | 10 | 1016.0 |
| 20260906151928 | 78 | 144 | 0.0 | 0.0 | 0.00 | 0.00 | 0.00 | 10 | 1016.0 |
| 20260906151430 | 78 | 145 | 0.0 | 0.0 | 0.00 | 0.00 | 0.00 | 10 | 1016.0 |
| 20260906150930 | 79 | 169 | 0.0 | 0.0 | 0.00 | 0.00 | 0.00 | 10 | 1016.0 |
| 20260906150432 | 79 | 146 | 0.0 | 0.0 | 0.00 | 0.00 | 0.00 | 10 | 1016.0 |
| 20260906145428 | 79 | 169 | 0.0 | 0.0 | 0.00 | 0.00 | 0.00 | 10 | 1016.0 |
| 20260906133429 | 81 | 163 | 0.0 | 0.0 | 0.00 | 0.00 | 0.00 | 10 | 1016.0 |
| 20260906132503 | 80 | 159 | 0.0 | 0.0 | 0.00 | 0.00 | 0.00 | 10 | 1016.0 |
| 20260906132429 | 80 | 159 | 0.0 | 0.0 | 0.00 | 0.00 | 0.00 | 10 | 1016.0 |
| 20260906131928 | 80 | 163 | 0.0 | 0.0 | 0.00 | 0.00 | 0.00 | 10 | 1016.0 |
| 20260906125931 | 80 | 145 | 0.0 | 0.0 | 0.00 | 0.00 | 0.00 | 10 | 1016.0 |
| 20260906124928 | 80 | 149 | 0.0 | 0.0 | 0.00 | 0.00 | 0.00 | 12 | 1016.0 |
| 20260906122932 | 79 | 143 | 0.0 | 0.0 | 0.00 | 0.00 | 0.00 | 12 | 1016.0 |
| 20260906121928 | 80 | 144 | 0.0 | 0.0 | 0.00 | 0.00 | 0.00 | 10 | 1016.0 |
| 20260906114930 | 79 | 169 | 0.0 | 0.0 | 0.00 | 0.00 | 0.00 | 10 | 1016.0 |
| 20260906112931 | 78 | 142 | 0.0 | 0.0 | 0.00 | 0.00 | 0.00 | 10 | 1016.0 |
| 20260906112433 | 78 | 158 | 0.0 | 0.0 | 0.00 | 0.00 | 0.00 | 10 | 1016.0 |
| 20260906105928 | 78 | 152 | 0.0 | 0.0 | 0.00 | 0.00 | 0.00 | 10 | 1016.0 |
| 20260906105434 | 78 | 169 | 0.0 | 0.0 | 0.00 | 0.00 | 0.00 | 10 | 1016.0 |
| 20260906100428 | 78 | 149 | 0.0 | 0.0 | 0.00 | 0.00 | 0.00 | 10 | 1016.0 |
| 20260906094432 | 77 | 152 | 0.0 | 0.0 | 0.00 | 0.00 | 0.00 | 10 | 1016.0 |
| 20260906091929 | 77 | 171 | 0.0 | 0.0 | 0.00 | 0.00 | 0.00 | 13 | 1016.0 |
| 20260906090432 | 76 | 151 | 0.0 | 0.0 | 0.00 | 0.00 | 0.00 | 13 | 1016.0 |
| 20260906084932 | 75 | 167 | 0.0 | 0.0 | 0.00 | 0.00 | 0.00 | 13 | 1016.0 |
| 20260906084434 | 75 | 144 | 0.0 | 0.0 | 0.00 | 0.00 | 0.00 | 13 | 1016.0 |
| 20260906082931 | 74 | 147 | 0.0 | 0.0 | 0.00 | 0.00 | 0.00 | 10 | 1016.0 |
| 20260906080932 | 71 | 170 | 0.0 | 0.0 | 0.00 | 0.00 | 0.00 | 10 | 1016.0 |
| 20260906071929 | 66 | 170 | 0.0 | 0.0 | 0.00 | 0.00 | 0.00 | 10 | 1015.0 |
| 20260906070932 | 65 | 164 | 0.0 | 0.0 | 0.00 | 0.00 | 0.00 | 10 | 1015.0 |
| 20260906065930 | 65 | 143 | 0.0 | 0.0 | 0.00 | 0.00 | 0.00 | 10 | 1015.0 |
| 20260906065429 | 64 | 145 | 0.0 | 0.0 | 0.00 | 0.00 | 0.00 | 10 | 1015.0 |
| 20260906064429 | 64 | 154 | 0.0 | 0.0 | 0.00 | 0.00 | 0.00 | 10 | 1015.0 |
| 20260906062429 | 63 | 145 | 0.0 | 0.0 | 0.00 | 0.00 | 0.00 | 10 | 1015.0 |
| 20260906060431 | 63 | 155 | 0.0 | 0.0 | 0.00 | 0.00 | 0.00 | 10 | 1015.0 |
| 20260906055929 | 63 | 153 | 0.0 | 0.0 | 0.00 | 0.00 | 0.00 | 10 | 1015.0 |
| 20260906054929 | 63 | 144 | 0.0 | 0.0 | 0.00 | 0.00 | 0.00 | 10 | 1015.0 |
| 20260906054430 | 63 | 169 | 0.0 | 0.0 | 0.00 | 0.00 | 0.00 | 10 | 1015.0 |
| 20260906053929 | 63 | 151 | 0.0 | 0.0 | 0.00 | 0.00 | 0.00 | 10 | 1015.0 |
| 20260906052929 | 63 | 162 | 0.0 | 0.0 | 0.00 | 0.00 | 0.00 | 10 | 1015.0 |
| 20260906052221 | 63 | 169 | 0.0 | 0.0 | 0.00 | 0.00 | 0.00 | 13 | 1015.0 |
| 20260906051929 | 63 | 169 | 0.0 | 0.0 | 0.00 | 0.00 | 0.00 | 13 | 1015.0 |
| 20260906051429 | 63 | 161 | 0.0 | 0.0 | 0.00 | 0.00 | 0.00 | 13 | 1015.0 |
| 20260906050929 | 63 | 152 | 0.0 | 0.0 | 0.00 | 0.00 | 0.00 | 13 | 1015.0 |
| 20260906050429 | 63 | 161 | 0.0 | 0.0 | 0.00 | 0.00 | 0.00 | 13 | 1015.0 |
| 20260906045929 | 63 | 143 | 0.0 | 0.0 | 0.00 | 0.00 | 0.00 | 13 | 1015.0 |
| 20260906045428 | 63 | 151 | 0.0 | 0.0 | 0.00 | 0.00 | 0.00 | 13 | 1015.0 |
| 20260906044928 | 63 | 143 | 0.0 | 0.0 | 0.00 | 0.00 | 0.00 | 13 | 1015.0 |
| 20260906044430 | 63 | 160 | 0.0 | 0.0 | 0.00 | 0.00 | 0.00 | 13 | 1015.0 |
| 20260906043428 | 63 | 157 | 0.0 | 0.0 | 0.00 | 0.00 | 0.00 | 13 | 1015.0 |
| 20260906042930 | 63 | 146 | 0.0 | 0.0 | 0.00 | 0.00 | 0.00 | 13 | 1015.0 |
| 20260906042431 | 63 | 170 | 0.0 | 0.0 | 0.00 | 0.00 | 0.00 | 13 | 1014.0 |
| 20260906041928 | 63 | 156 | 0.0 | 0.0 | 0.00 | 0.00 | 0.00 | 13 | 1014.0 |
| 20260906041429 | 63 | 168 | 0.0 | 0.0 | 0.00 | 0.00 | 0.00 | 13 | 1014.0 |
| 20260906040928 | 63 | 167 | 0.0 | 0.0 | 0.00 | 0.00 | 0.00 | 13 | 1014.0 |
| 20260906040430 | 64 | 169 | 0.0 | 0.0 | 0.00 | 0.00 | 0.00 | 13 | 1014.0 |
| 20260906035928 | 64 | 170 | 0.0 | 0.0 | 0.00 | 0.00 | 0.00 | 13 | 1014.0 |
| 20260906035429 | 64 | 156 | 0.0 | 0.0 | 0.00 | 0.00 | 0.00 | 13 | 1014.0 |
| 20260906034930 | 64 | 161 | 0.0 | 0.0 | 0.00 | 0.00 | 0.00 | 13 | 1014.0 |
| 20260906034429 | 64 | 158 | 0.0 | 0.0 | 0.00 | 0.00 | 0.00 | 13 | 1014.0 |
| 20260906033930 | 64 | 143 | 0.0 | 0.0 | 0.00 | 0.00 | 0.00 | 13 | 1014.0 |
| 20260906033429 | 64 | 161 | 0.0 | 0.0 | 0.00 | 0.00 | 0.00 | 13 | 1014.0 |
| 20260906032930 | 64 | 159 | 0.0 | 0.0 | 0.00 | 0.00 | 0.00 | 10 | 1014.0 |
| 20260906032431 | 64 | 148 | 0.0 | 0.0 | 0.00 | 0.00 | 0.00 | 10 | 1014.0 |
| 20260906031429 | 64 | 155 | 0.0 | 0.0 | 0.00 | 0.00 | 0.00 | 10 | 1014.0 |
| 20260906025928 | 64 | 143 | 0.0 | 0.0 | 0.00 | 0.00 | 0.00 | 10 | 1014.0 |
| 20260906023929 | 64 | 147 | 0.0 | 0.0 | 0.00 | 0.00 | 0.00 | 10 | 1015.0 |
| 20260906021928 | 64 | 146 | 0.0 | 0.0 | 0.00 | 0.00 | 0.00 | 10 | 1015.0 |
| 20260906021429 | 64 | 155 | 0.0 | 0.0 | 0.00 | 0.00 | 0.00 | 10 | 1015.0 |
| 20260906020430 | 64 | 144 | 0.0 | 0.0 | 0.00 | 0.00 | 0.00 | 10 | 1015.0 |
| 20260906015430 | 64 | 145 | 0.0 | 0.0 | 0.00 | 0.00 | 0.00 | 10 | 1015.0 |
| 20260906013429 | 64 | 168 | 0.0 | 0.0 | 0.00 | 0.00 | 0.00 | 10 | 1015.0 |
| 20260906010929 | 64 | 142 | 0.0 | 0.0 | 0.00 | 0.00 | 0.00 | 10 | 1015.0 |
| 20260906010429 | 64 | 146 | 0.0 | 0.0 | 0.00 | 0.00 | 0.00 | 10 | 1015.0 |
| 20260906004929 | 64 | 160 | 0.0 | 0.0 | 0.00 | 0.00 | 0.00 | 10 | 1015.0 |
| 20260906004429 | 64 | 166 | 0.0 | 0.0 | 0.00 | 0.00 | 0.00 | 10 | 1015.0 |
| 20260906002929 | 64 | 164 | 0.0 | 0.0 | 0.00 | 0.00 | 0.00 | 10 | 1015.0 |
| 20260906002429 | 65 | 142 | 0.0 | 0.0 | 0.00 | 0.00 | 0.00 | 10 | 1015.0 |
| 20260906001929 | 65 | 148 | 0.0 | 0.0 | 0.00 | 0.00 | 0.00 | 10 | 1015.0 |
| 20260906001429 | 65 | 143 | 0.0 | 0.0 | 0.00 | 0.00 | 0.00 | 10 | 1015.0 |
| 20260906000429 | 64 | 160 | 0.0 | 0.0 | 0.00 | 0.00 | 0.00 | 10 | 1015.0 |
| 20260905235929 | 65 | 169 | 0.0 | 0.0 | 0.00 | 0.00 | 0.00 | 10 | 1015.0 |
| 20260905235430 | 65 | 153 | 0.0 | 0.0 | 0.00 | 0.00 | 0.00 | 10 | 1015.0 |
| 20260905234929 | 65 | 161 | 0.0 | 0.0 | 0.00 | 0.00 | 0.00 | 10 | 1015.0 |
| 20260905234429 | 65 | 168 | 0.0 | 0.0 | 0.00 | 0.00 | 0.00 | 10 | 1015.0 |
| 20260905233929 | 65 | 161 | 0.0 | 0.0 | 0.00 | 0.00 | 0.00 | 10 | 1015.0 |
| 20260905233429 | 65 | 159 | 0.0 | 0.0 | 0.00 | 0.00 | 0.00 | 10 | 1015.0 |
| 20260905232929 | 65 | 168 | 0.0 | 0.0 | 0.00 | 0.00 | 0.00 | 10 | 1015.0 |
| 20260905232429 | 65 | 142 | 0.0 | 0.0 | 0.00 | 0.00 | 0.00 | 10 | 1015.0 |
| 20260905231931 | 64 | 154 | 0.0 | 0.0 | 0.00 | 0.00 | 0.00 | 10 | 1015.0 |
| 20260905203428 | 64 | 169 | 0.0 | 0.0 | 0.00 | 0.00 | 0.00 | 13 | 1015.0 |
| 20260905201928 | 65 | 152 | 0.0 | 0.0 | 0.00 | 0.00 | 0.00 | 13 | 1015.0 |
| 20260905195928 | 64 | 141 | 0.0 | 0.0 | 0.00 | 0.00 | 0.00 | 13 | 1015.0 |
| 20260905194929 | 64 | 168 | 0.0 | 0.0 | 0.00 | 0.00 | 0.00 | 13 | 1015.0 |